Preview of NWS' New Version of Forecast
This preview is not operational and should not be used for support decisions.

Regional Weather Roundup (RWR)

Issued by National Weather Service (NWS)

                            
000
ASUS45 KABQ 212201
RWRNM 
NEW MEXICO REGIONAL WEATHER ROUNDUP
NATIONAL WEATHER SERVICE ALBUQUERQUE NM
400 PM MDT WED AUG 21 2019

NOTE: "FAIR" MEANS FEW OR NO CLOUDS BELOW 12,000 FEET AGL WITH NO
       SIGNIFICANT WEATHER OR OBSTRUCTIONS TO VISION.

      THIS PRODUCT IS RELEASED AS TWO VERSIONS.  ONE VERSION NEAR
      THE TOP OF THE HOUR CONTAINING PRELIMINARY DATA FROM ALBUQUERQUE
      AND OTHER STATIONS.  A FINAL VERSION WITH ADDITIONAL DATA IS 
      ISSUED ABOUT 10 MINUTES AFTER THE HOUR.
 
NMZ501-503-504-510>518-212300-
NORTHWEST PLATEAU/NORTHCENTRAL MOUNTAINS
  
CITY           SKY/WX    TMP DP  RH WIND       PRES   REMARKS
FARMINGTON     FAIR      95  29   9 VRB5      30.06F                  
LOS ALAMOS       N/A     84  33  16 W7        30.24F                  
SANTA FE       FAIR      90  42  18 VRB6      30.15F                  
TAOS             N/A     60  52  74 NE17      30.36R THUNDER          
ANGEL FIRE     PTSUNNY   65  43  43 W5        30.44R                  

$$
NMZ402-403-502-505>509-212300-
WESTCENTRAL MOUNTAINS/SOUTHWEST MOUNTAINS
  
CITY           SKY/WX    TMP DP  RH WIND       PRES   REMARKS
GALLUP         FAIR      89  35  14 SW7G16    30.16F                  
GRANTS         FAIR      86  34  15 W6        30.21F                  
SILVER CITY    FAIR      82  49  31 N32       30.13R                  

$$
NMZ407-409-411-412-212300-
SOUTHERN DESERTS
  
CITY           SKY/WX    TMP DP  RH WIND       PRES   REMARKS
DEMING         FAIR      96  50  20 W5        29.98F                  
LAS CRUCES     FAIR      97  42  15 NE5       30.01F                  
HOLLOMAN AFB   FAIR      97  52  21 NE13G18   30.00F                  
ALAMOGORDO     FAIR      97  48  19 E7        30.00F                  
T OR C         PTSUNNY   86  51  29 NW30G40   30.08R THUNDER          

$$
NMZ519>523-212300-
CENTRAL VALLEYS/CENTRAL HIGHLANDS
  
CITY           SKY/WX    TMP DP  RH WIND       PRES   REMARKS
ALBUQUERQUE    FAIR      94  42  16 VRB3      30.07F                  
DOUBLE EAGLE   PTSUNNY   91  39  16 NW9       30.11F                  
CLINES CORNERS CLOUDY    77  45  32 NE24G32   30.24S                  
BELEN          FAIR      89  36  15 SW22G30   30.08S                  
SOCORRO        FAIR      82  44  26 W22G38    30.08S                  

$$
NMZ524>526-539-540-212300-
SOUTHCENTRAL MOUNTAINS
  
CITY           SKY/WX    TMP DP  RH WIND       PRES   REMARKS
RUIDOSO        FAIR      72  50  46 SW7       30.27F                  

$$
NMZ527>531-212300-
NORTHEAST HIGHLANDS/NORTHEAST PLAINS
  
CITY           SKY/WX    TMP DP  RH WIND       PRES   REMARKS
LAS VEGAS      FAIR      77  45  32 N7        30.25F                  
RATON          LGT RAIN  64  50  60 W18G33    30.28R                  
CLAYTON        FAIR      88  56  33 SE6       30.07F                  

$$
NMZ532>537-212300-
EASTCENTRAL PLAINS
  
CITY           SKY/WX    TMP DP  RH WIND       PRES   REMARKS
SANTA ROSA     FAIR      92  49  23 S14       30.03F                  
TUCUMCARI      FAIR     100  50  18 S13G23    29.95F HX  97           
CANNON AFB     FAIR      95  50  21 S16       30.03F                  
CLOVIS AIRPORT FAIR      95  52  23 SE15      30.04F                  

$$
NMZ028-029-538-212300-
SOUTHEAST PLAINS
  
CITY           SKY/WX    TMP DP  RH WIND       PRES   REMARKS
ROSWELL        FAIR      97  48  18 S12       29.97F                  
ARTESIA        FAIR      95  54  24 SE14G20   29.99F                  
CARLSBAD       FAIR      95  50  21 CALM      29.95F                  
HOBBS          MOSUNNY   95  50  21 S9G18     30.00F                  


$$